Location: Wyoming Skies Observatory
(43.6910°N, 108.3105°W)
Time: 01:07:55
(UTC-06:00)

Daily predictions for brighter satellites

Satellite Brightness Start Highest point End
(mag) Time Altitude Azimuth Time Altitude Azimuth Time Altitude Azimuth
H-2A ROCKET BODY 4.3 00:01:45 18° SSW 00:06:46 36° SSE 00:32:50 10° E
Lacrosse 5 2.6 00:03:35 10° WNW 00:08:11 35° SW 00:08:48 34° SW
Cosmos 1633 Rocket 3.4 00:10:53 47° ESE 00:11:13 48° E 00:15:26 10° NNE
CZ-2C R/B 3.6 00:09:06 36° SE 00:11:17 59° ENE 00:16:54 10° N
RESURS DK-1 4.4 00:09:03 10° WNW 00:11:46 17° WSW 00:12:27 16° WSW
USA 234 4.5 00:05:59 10° NE 00:12:03 42° NNW 00:18:07 10° W
Abrixas rocket 3.3 00:08:50 10° WNW 00:10:58 36° W 00:10:58 36° W
H-2A R/B 3.7 00:14:45 21° WSW 00:16:01 24° W 00:19:30 10° NW
Cosmos 2242 Rocket 4.1 00:19:33 10° N 00:24:02 50° ENE 00:24:47 45° ESE
ARGOS Delta rocket 4.0 00:20:38 10° N 00:26:02 84° WNW 00:27:36 47° SSW
Cosmos 968 Rocket 3.7 00:33:50 48° SE 00:34:37 53° ESE 00:39:44 10° NNE
CZ-2C R/B 2.5 00:30:43 10° NNE 00:36:04 77° ESE 00:37:21 52° S
Cosmos 1470 Rocket 3.9 00:39:04 49° ESE 00:39:17 49° E 00:43:35 10° NNE
Cosmos 540 Rocket 3.8 00:35:02 10° NNW 00:40:01 50° WSW 00:40:59 44° SW
Cosmos 2278 Rocket 3.7 00:45:15 20° ESE 00:45:44 20° E 00:49:44 10° NE
Cosmos 2084 Rocket 4.0 00:43:46 10° NNW 00:47:26 44° NE 00:48:01 41° ENE
Cosmos 1844 4.2 00:49:47 39° SE 00:50:30 41° ESE 00:55:44 10° NE
Cosmos 1933 3.4 00:47:51 10° N 00:51:58 69° E 00:52:04 68° E
Cosmos 1538 Rocket 4.4 00:46:38 10° NNW 00:51:58 59° ENE 00:53:38 41° ESE
SL-24 R/B - RUBIN 2 4.3 00:49:06 10° NNW 00:54:38 60° NE 00:56:29 37° ESE
COSMOS 2406 3.2 00:53:41 10° NNW 00:59:24 81° ENE 01:01:04 48° SE
Cosmos 2034 Rocket 4.4 00:53:29 10° NNW 00:59:41 56° W 01:01:49 38° SSW
Cosmos 1689 Rocket 4.3 00:59:56 21° ENE 00:59:56 21° ENE 01:02:10 10° NNE
ALOS 2 2.7 01:00:27 56° WSW 01:00:44 57° W 01:05:05 10° NNW
CZ-4B R/B 2.8 01:05:34 31° ENE 01:05:34 31° ENE 01:08:42 10° N
Cosmos 2263 Rocket 3.9 01:02:09 10° WSW 01:06:54 28° NW 01:11:42 10° N
Meteor 2-10 Rocket 3.5 01:01:34 10° N 01:06:56 88° W 01:08:12 55° S
Sich 1 4.2 01:07:15 30° W 01:08:06 33° WNW 01:11:59 10° N
Cosmos 292 Rocket 3.6 01:03:49 10° NNW 01:08:37 88° ENE 01:09:16 66° SSE
CZ-4C R/B 2.0 01:08:03 53° SSW 01:09:21 81° SE 01:15:21 10° NE
Cosmos 1315 Rocket 3.1 01:10:29 55° E 01:10:29 55° E 01:14:06 10° NNE
Landsat 5 4.2 01:12:56 41° E 01:13:38 44° ENE 01:17:37 10° N
Cosmos 2082 Rocket 4.2 01:12:52 10° N 01:17:14 23° NE 01:21:36 10° E
Cosmos 1400 Rocket 3.1 01:17:13 58° W 01:17:26 59° WNW 01:21:33 10° N
Meteor 2-3 Rocket 3.9 01:19:12 47° SSE 01:20:42 63° E 01:26:27 10° NNE
Cosmos 1825 4.4 01:21:09 16° E 01:21:16 16° E 01:23:38 10° NE
Cosmos 1782 4.2 01:25:25 10° NNE 01:29:00 29° ENE 01:29:43 27° E
ATLAS 3B R/B 4.5 01:28:26 16° SE 01:30:30 18° ESE 01:35:00 10° ENE
Cosmos 773 Rocket 3.9 01:26:45 10° NNW 01:32:02 86° WSW 01:33:10 56° SSE
Cosmos 1408 4.4 01:34:05 22° E 01:34:05 22° E 01:36:47 10° NE
Cosmos 1862 Rocket 4.2 01:32:54 10° NNW 01:36:59 40° W 01:37:10 40° W
Cosmos 1634 Rocket 4.0 01:32:45 10° NNW 01:38:54 69° W 01:40:47 45° SSW
Cosmos 1933 Rocket 4.3 01:39:00 39° W 01:39:34 41° WNW 01:43:43 10° N
Cosmos 1777 Rocket 3.9 01:39:02 56° SSW 01:40:12 86° WNW 01:45:28 10° NNE
Cosmos 1844 Rocket 3.0 01:39:31 38° SW 01:41:29 60° WNW 01:47:02 10° NNE
Cosmos 1680 Rocket 3.9 01:38:25 10° NNW 01:43:38 58° ENE 01:45:44 34° SE
CZ-4C R/B 4.2 01:45:09 33° WNW 01:45:09 33° WNW 01:47:26 10° NNW
Cosmos 1346 Rocket 2.7 01:41:09 10° N 01:45:04 73° E 01:45:05 73° E
Helios 1B 4.4 01:47:26 70° SW 01:47:44 73° WSW 01:52:06 10° NNW
Cosmos 1892 3.1 01:51:23 54° W 01:51:23 54° W 01:55:14 10° N
Aureole 3 4.2 01:53:14 47° S 01:55:05 87° W 02:00:11 10° N
Cosmos 2221 Rocket 3.4 01:51:33 10° N 01:56:01 86° E 01:56:36 67° SSE
SAR-Lupe-2 4.4 01:56:39 42° WNW 01:56:39 42° WNW 01:59:33 10° NNW
BREEZE M DEB (TANK) 4.4 01:59:10 18° E 01:59:10 18° E 01:59:50 10° ENE
Cosmos 2180 Rocket 4.5 01:51:31 10° N 01:57:52 83° E 02:00:22 40° SSE
SL-27 R/B 3.0 01:56:41 10° NNW 01:59:18 51° NW 01:59:18 51° NW
Cosmos 1703 Rocket 3.9 02:03:53 10° NNW 02:08:14 50° W 02:08:36 48° WSW
SeaSat 1 3.5 02:05:50 15° ESE 02:09:39 43° NE 02:14:19 10° NNW
Cosmos 1607 4.4 02:08:10 36° SSE 02:09:58 46° ESE 02:15:55 10° NE
Cosmos 1606 2.6 02:06:57 10° N 02:10:50 78° E 02:11:04 74° SE
CZ-2D R/B 4.5 02:09:51 10° ENE 02:12:17 13° E 02:14:42 10° ESE
Cosmos 1340 4.1 02:13:23 10° N 02:16:50 32° ENE 02:18:02 26° ESE
H-2A R/B 2.7 02:14:55 10° N 02:19:26 69° WNW 02:20:19 53° SW
Genesis I 3.0 02:21:01 77° SW 02:21:17 85° WNW 02:25:14 10° NE
Cosmos 2278 Rocket 2.4 02:27:04 36° SW 02:29:18 62° WNW 02:34:55 10° NNE
Cosmos 1869 Rocket 4.3 02:31:28 36° WSW 02:32:15 39° WNW 02:36:20 10° N
Okean 1-7 3.7 02:30:41 10° NNW 02:34:40 37° W 02:35:02 36° WSW
COSMOS 2487 3.3 02:32:44 10° N 02:36:12 48° ENE 02:37:16 35° ESE
Cosmos 1833 Rocket 2.7 02:31:08 10° NNW 02:36:49 78° ENE 02:40:31 22° SSE
Nadezhda 4 Rocket 4.0 02:35:13 36° SSW 02:37:59 82° W 02:44:21 10° N
CZ-4B R/B 3.8 02:39:08 15° WNW 02:39:08 15° WNW 02:40:30 10° NW
NPP 4.3 02:33:09 10° NNE 02:38:21 46° E 02:40:50 28° SSE
GP-B 4.0 02:35:44 10° NNE 02:39:59 43° E 02:41:55 27° SE
Cosmos 1461 3.2 02:39:59 43° W 02:40:51 53° NW 02:44:47 10° NNE
CZ-3B DEB 4.3 02:29:50 10° NW 02:43:04 79° NE 02:54:48 10° ESE
Cosmos 2297 3.6 02:46:52 37° SSW 02:49:14 88° ESE 02:54:57 10° NNE
Cosmos 2298 Rocket 4.1 02:48:05 36° S 02:50:13 68° ESE 02:55:30 10° NNE
SL-16 R/B 3.4 02:47:31 10° SE 02:53:27 48° ENE 02:59:25 10° N
Cosmos 1825 3.1 02:56:02 33° W 02:56:33 34° WNW 03:00:04 10° N
Cosmos 1862 3.5 02:55:53 47° SW 02:56:46 61° W 03:00:48 10° N
Cosmos 1733 Rocket 3.0 02:56:07 45° SSW 02:57:25 75° W 03:01:48 10° N
CZ-4C R/B 4.2 02:54:09 10° W 02:58:41 24° NNW 03:03:44 10° NNE
PSLV R/B 4.5 02:54:40 10° N 02:58:44 38° WNW 03:00:09 30° WSW
Cosmos 2082 Rocket 2.2 02:56:14 10° NNW 03:01:48 64° WSW 03:04:45 28° S
Cosmos 2150 Rocket 4.1 02:59:34 33° S 03:02:03 77° ESE 03:07:32 10° NNE
Abrixas 4.3 03:00:17 14° WNW 03:02:07 28° N 03:04:34 10° ENE
Cosmos 1782 4.4 03:02:05 10° NW 03:05:10 21° W 03:05:21 21° W
ADEOS Rocket 3.7 02:59:20 10° NNE 03:07:00 66° E 03:12:01 21° S
Cosmos 1408 4.1 03:08:32 21° W 03:09:00 22° WNW 03:11:54 10° NNW
Cosmos 44 3.2 03:10:25 35° SW 03:12:20 73° NW 03:16:50 10° NNE
Exosat Rocket 4.1 03:11:36 10° NNW 03:17:03 62° WSW 03:23:03 15° S
BREEZE-M DEB (TANK) 3.4 03:09:33 10° WNW 03:18:11 88° SSW 03:21:28 10° ESE
Sich 1 Rocket 3.7 03:16:13 29° S 03:18:32 76° E 03:23:08 10° NNE
ATLAS 3B R/B 2.9 03:15:40 26° SSW 03:20:18 83° SE 03:27:31 10° NE
Okean 3 3.4 03:17:40 10° N 03:21:57 86° W 03:24:12 27° S
Helios 1A Rocket 3.9 03:18:28 10° N 03:22:14 35° WNW 03:23:43 26° WSW
Cosmos 44 Rocket 3.7 03:19:53 26° WSW 03:22:23 52° NW 03:27:04 10° NNE
Meteor 1-27 Rocket 4.4 03:17:25 10° NNW 03:22:57 41° W 03:25:42 26° SW
S3M 4.4 03:17:30 10° N 03:23:40 61° E 03:29:42 10° SSE
AQUA 3.8 03:19:05 10° NNE 03:23:52 83° WNW 03:26:22 28° SSW
ADEOS 4.3 03:20:01 10° NNE 03:25:05 47° E 03:29:01 16° SSE
Cosmos 1674 Rocket 4.0 03:22:01 10° NNW 03:26:16 45° W 03:27:55 31° SW
Cosmos 1417 Rocket 4.5 03:24:16 10° N 03:30:27 87° E 03:35:57 13° S
Cosmos 1627 Rocket 4.5 03:27:03 25° SSW 03:30:47 69° W 03:36:56 10° N
Cosmos 1937 Rocket 3.7 03:30:03 26° SW 03:32:50 58° WNW 03:37:56 10° NNE
Timation 2 Rocket 4.0 03:29:15 10° NNW 03:35:12 58° WSW 03:41:04 11° S
Resurs 1-4 Rocket 2.2 03:31:54 10° NNE 03:37:15 73° ESE 03:41:09 19° S
Cosmos 1908 Rocket 3.7 03:35:31 28° SSW 03:37:45 64° W 03:42:12 10° N
COBE Rocket 3.8 03:33:10 10° N 03:37:58 76° WNW 03:40:59 23° SSW
Geosat 4.0 03:34:05 10° NNE 03:39:10 88° WNW 03:42:20 23° SSW
Okean 2 Rocket 3.4 03:42:50 17° S 03:46:11 63° E 03:50:33 10° NNE
SeaSat 1 3.4 03:45:36 23° SW 03:47:16 27° WSW 03:51:29 10° NW
Cosmos 1378 Rocket 3.8 03:43:45 10° NNW 03:47:54 47° W 03:50:20 23° SSW
Cosmos 990 Rocket 4.4 03:45:28 22° SW 03:48:35 49° WNW 03:53:37 10° N
IRS-1C 4.4 03:46:16 10° N 03:51:30 57° WNW 03:55:09 20° SW
Cosmos 1340 4.4 03:49:47 10° NW 03:52:15 17° W 03:52:51 16° W
CZ-2D R/B 2.1 03:47:35 10° NNE 03:52:59 85° WNW 03:57:14 17° SSW
Cosmos 1125 Rocket 3.8 03:51:59 16° S 03:56:15 65° ESE 04:01:30 10° NNE
ARIANE 5 R/B 2.4 03:52:19 10° NNE 03:57:20 84° WNW 04:01:17 17° SSW
CZ-2D R/B 4.5 03:53:08 10° NNE 03:57:23 46° E 04:01:39 10° S
SL-08 R/B 4.4 03:57:18 20° SW 03:59:34 28° W 04:03:44 10° NW
Spot 4 Rocket 4.1 03:54:48 10° N 03:59:55 68° WNW 04:03:52 17° SSW
Cosmos 1782 Rocket 3.7 03:57:32 20° SSW 04:00:34 63° W 04:05:02 10° N
Cosmos 1553 Rocket 4.1 03:55:39 10° NNW 04:01:58 66° W 04:08:18 10° S
UNKNOWN OBJECT B 3.2 03:58:39 10° NNE 04:02:20 56° E 04:05:37 12° S
Cosmos 2026 Rocket 4.5 03:58:14 18° SW 04:02:23 43° WNW 04:08:09 10° N
BREEZE-M DEB 4.0 04:00:53 10° NW 04:03:02 23° N 04:04:49 10° ENE
IRS-1D 3.6 04:02:30 10° N 04:07:34 62° WNW 04:11:33 16° SSW
Cosmos 1346 3.0 04:08:45 10° NNW 04:11:25 51° W 04:13:09 18° SSW
USA 238 DEB 3.9 04:06:09 16° SW 04:11:57 67° NW 04:18:57 10° NNE
USA 238 3.9 04:06:15 16° SW 04:12:03 68° NW 04:19:04 10° NNE
Meteor 1-18 Rocket 4.3 04:07:26 10° NNW 04:12:54 60° W 04:18:21 10° S
Cosmos 2278 Rocket 4.5 04:12:15 10° WNW 04:14:36 12° NW 04:16:57 10° NNW
Okean O Rocket 4.0 04:12:34 10° NE 04:15:44 19° E 04:18:53 10° SE
Cosmos 1437 3.6 04:13:48 10° NNW 04:16:44 31° W 04:18:39 17° SSW
Meteor 1-20 Rocket 4.4 04:14:39 13° SSW 04:19:51 66° WNW 04:25:42 10° N
Cosmos 1833 Rocket 4.3 04:16:51 10° WNW 04:20:00 15° W 04:22:09 13° WSW
Cosmos 405 Rocket 2.7 04:16:33 10° NNW 04:20:32 73° W 04:24:25 10° S
Cosmos 1943 Rocket 3.0 04:15:23 10° S 04:20:45 47° ESE 04:26:07 10° NE
Cosmos 2369 Rocket 2.2 04:18:13 12° SSW 04:23:22 87° ESE 04:29:03 10° NNE
Cosmos 724 4.5 04:17:55 14° SSW 04:23:27 90° WNW 04:29:39 10° NNE
Cosmos 1269 Rocket 4.0 04:19:07 10° NNW 04:24:26 74° WSW 04:29:42 10° SSE
BREEZE-M R/B 2.9 04:19:33 10° WNW 04:25:45 82° SSW 04:28:56 10° ESE
Cosmos 1812 3.8 04:22:37 10° NNW 04:25:57 28° W 04:28:42 13° SW
Cosmos 1975 Rocket 4.0 04:25:30 10° NNW 04:29:18 31° W 04:32:56 11° SSW
ADEOS II 3.3 04:27:49 10° NNE 04:32:46 40° E 04:37:41 10° SSE
USA 161 1.2 04:30:49 10° SSE 04:33:10 75° ENE 04:35:43 10° N
COSMOS 2455 3.3 04:28:05 10° SSW 04:33:56 58° ESE 04:39:51 10° NE
Cosmos 2151 Rocket 3.6 04:29:42 10° S 04:34:14 81° W 04:38:47 10° N
Cosmos 372 Rocket 4.0 04:29:52 11° SSW 04:34:55 72° WNW 04:40:08 10° NNE
CZ-3B DEB 4.2 04:24:34 10° NW 04:36:48 48° WSW 04:46:49 10° SSE
SL-16 R/B 3.4 04:31:56 10° SSW 04:37:15 30° W 04:42:39 10° NW
Abrixas 3.3 04:34:37 10° WNW 04:37:17 47° NNE 04:39:57 10° E
Cosmos 1536 3.7 04:36:07 10° S 04:39:57 50° E 04:43:50 10° NNE
Cosmos 2263 4.3 04:34:33 10° SSW 04:40:21 86° ESE 04:46:11 10° NNE
USA 267 3.3 04:36:55 10° NE 04:43:29 88° SE 04:50:03 10° SW
Cosmos 158 Rocket 4.3 04:42:05 10° NNW 04:46:55 43° WSW 04:51:36 10° S
NOSS 3-3 (A) 4.5 04:39:50 10° NW 04:47:18 73° WSW 04:55:17 10° SSE
SL-24 R/B 4.2 04:43:27 10° N 04:47:31 62° WNW 04:52:09 10° SSW
Cosmos 1602 3.9 04:44:13 10° SSW 04:48:06 59° W 04:52:01 10° N
NOSS 3-2 (C) 3.6 04:45:33 10° SW 04:51:36 86° NW 04:58:17 10° NE
Cosmos 1536 Rocket 3.7 04:47:40 10° NNW 04:52:05 58° W 04:56:27 10° S
NOSS 3-2 (A) 3.7 04:46:21 10° SW 04:52:23 68° NW 04:59:04 10° NNE
Cosmos 1025 Rocket 4.3 04:50:36 10° N 04:54:51 45° ENE 04:59:04 10° SSE
MOS 1-B 4.4 04:51:46 10° NNE 04:57:36 86° WNW 05:03:23 10° SSW
PSLV R/B 4.0 04:54:04 10° NNE 04:57:47 66° ESE 05:01:27 10° S
Cosmos 2315 Rocket 4.1 04:55:10 10° NNW 05:01:23 62° W 05:07:31 10° S
